Location: Val-d'Or
(48.1170°N, 77.7670°W)
Time: 22:41:06
(UTC-04:00)

ISS - Pass Details

Date: 23 May 2018
Orbit: 402 x 407 km, 51.6° (Epoch: 26 May)

Event Time Altitude Azimuth Distance (km) Brightness Sun altitude
Rises 22:17:51 0° 245° (WSW) 2,313 0.2 -11.3°
Reaches altitude 10° 22:19:55 10° 245° (WSW) 1,455 -0.8 -11.6°
Maximum altitude 22:23:11 88° 162° (SSE) 408 -3.9 -11.9°
Drops below altitude 10° 22:26:28 10° 68° (ENE) 1,459 -1.2 -12.2°
Sets 22:28:33 0° 68° (ENE) 2,320 -0.1 -12.5°
